2021-006CB (47486 NORAD) Tracking and Keplerian Element Data

This shows tracking and keplerian element data for the satellite.

Feedback or suggestion? Click here.




ElementValue
Catalog47486
Name2021-006CB
Epoch Orbit473
Epoch Day53.91376985
Epoch Year2021
RAAN117.0957
Inclination97.5052
Eccentricity0.0011225
Argument of Perigee134.29
Mean Anonmoly225.9253
Mean Motion15.12201019
Decay Rate4.85E-06
L11 47486U 21006CB 21053.91376985 .00000485 00000-0 31793-4 0 9991
L22 47486 97.5052 117.0957 0011225 134.2900 225.9253 15.12201019 4733

Live tracking and technical data element details for 2021-006CB (NORAD 47486). 2021-006CB can be tracked NOW for your location showing map with azimuth and elevation plus other details from your city location.

Track the satellite on the map from your city or location and see movement details for azimuth, elevation, latitude, longitude, range, height, and movement on the map or in text.







IsCatalogInMostPopularTable: catalog: 47486, numindb: 14
Update: records affected: 1



GetName: 47486 2021-006CB

Hit Count: updated at: Tue, 13 Apr 2021 04:39:18 GMT